Tracking 19717 objects as of 25-Jun-2019
HD Live streaming from Space Station
objects crossing your sky now

FENGYUN 1C DEB

Track FENGYUN 1C DEB now!
10-day predictions


NORAD ID: 30365
Int'l Code: 1999-025ACC
Perigee: 718.7 km
Apogee: 970.3 km
Inclination: 98.7 °
Period: 101.7 minutes
Semi major axis: 7215 km
RCS: 0.026 m2 (small)
Launch date: May 10, 1999
Source: People's Republic of China (PRC)
Launch site: Taiyaun Space Center, China (TSC)

Note: This is SATELLITE DEBRIS
aabbcc
Your satellite tracking list
Your tracking list is empty




NASA's NSSDC Master Catalog

Two Line Element Set (TLE):
1 30365U 99025ACC 19176.07508150 -.00000013  00000-0  12567-4 0  9992
2 30365  98.7014 206.1826 0174318  68.1441 318.5950 14.16457645641578
Source of the keplerian elements: AFSPC